TimeCST,TemperatureF,Dew PointF,Humidity,Sea Level PressureIn,VisibilityMPH,Wind Direction,Wind SpeedMPH,Gust SpeedMPH,PrecipitationIn,Events,Conditions,WindDirDegrees,DateUTC
12:15 AM,26.6,21.2,80,30.21,10.0,Calm,Calm,-,N/A,,Scattered Clouds,0,2013-03-03 06:15:00
12:35 AM,26.6,21.2,80,30.21,10.0,Calm,Calm,-,N/A,,Scattered Clouds,0,2013-03-03 06:35:00
12:55 AM,26.6,23.0,86,30.21,10.0,Calm,Calm,-,N/A,,Mostly Cloudy,0,2013-03-03 06:55:00
1:35 AM,28.4,23.0,80,30.21,10.0,Calm,Calm,-,N/A,,Mostly Cloudy,0,2013-03-03 07:35:00
1:55 AM,30.2,23.0,75,30.20,10.0,Calm,Calm,-,N/A,,Scattered Clouds,0,2013-03-03 07:55:00
2:15 AM,30.2,23.0,75,30.20,10.0,Calm,Calm,-,N/A,,Scattered Clouds,0,2013-03-03 08:15:00
2:35 AM,28.4,23.0,80,30.18,10.0,Calm,Calm,-,N/A,,Scattered Clouds,0,2013-03-03 08:35:00
2:55 AM,28.4,21.2,74,30.17,10.0,Calm,Calm,-,N/A,,Clear,0,2013-03-03 08:55:00
3:15 AM,28.4,21.2,74,30.16,10.0,Calm,Calm,-,N/A,,Clear,0,2013-03-03 09:15:00
3:35 AM,28.4,21.2,74,30.16,10.0,Calm,Calm,-,N/A,,Clear,0,2013-03-03 09:35:00
3:55 AM,28.4,21.2,74,30.15,10.0,Calm,Calm,-,N/A,,Clear,0,2013-03-03 09:55:00
4:15 AM,28.4,21.2,74,30.15,10.0,Calm,Calm,-,N/A,,Clear,0,2013-03-03 10:15:00
4:35 AM,28.4,21.2,74,30.16,10.0,Calm,Calm,-,N/A,,Clear,0,2013-03-03 10:35:00
4:55 AM,28.4,21.2,74,30.16,10.0,Calm,Calm,-,N/A,,Clear,0,2013-03-03 10:55:00
5:15 AM,28.4,23.0,80,30.16,10.0,Calm,Calm,-,N/A,,Clear,0,2013-03-03 11:15:00
6:15 AM,28.4,21.2,74,30.15,10.0,East,3.5,-,N/A,,Clear,100,2013-03-03 12:15:00
6:55 AM,28.4,21.2,74,30.14,10.0,Calm,Calm,-,N/A,,Clear,0,2013-03-03 12:55:00
7:15 AM,28.4,21.2,74,30.14,10.0,Calm,Calm,-,N/A,,Clear,0,2013-03-03 13:15:00
7:35 AM,30.2,23.0,75,30.14,10.0,SE,3.5,-,N/A,,Clear,130,2013-03-03 13:35:00
7:55 AM,32.0,23.0,69,30.14,10.0,SE,3.5,-,N/A,,Clear,130,2013-03-03 13:55:00
8:15 AM,32.0,23.0,69,30.14,10.0,SE,4.6,-,N/A,,Clear,130,2013-03-03 14:15:00
8:35 AM,35.6,23.0,60,30.13,10.0,SE,5.8,-,N/A,,Clear,130,2013-03-03 14:35:00
8:55 AM,37.4,23.0,56,30.12,10.0,SE,5.8,-,N/A,,Clear,140,2013-03-03 14:55:00
9:15 AM,39.2,23.0,52,30.12,10.0,SSE,6.9,-,N/A,,Clear,160,2013-03-03 15:15:00
9:35 AM,42.8,23.0,46,30.11,10.0,South,9.2,-,N/A,,Clear,170,2013-03-03 15:35:00
9:55 AM,44.6,23.0,43,30.11,10.0,SSE,6.9,-,N/A,,Clear,160,2013-03-03 15:55:00
10:15 AM,44.6,23.0,43,30.10,10.0,SSE,6.9,-,N/A,,Clear,160,2013-03-03 16:15:00
10:35 AM,46.4,24.8,43,30.10,10.0,South,11.5,17.3,N/A,,Clear,180,2013-03-03 16:35:00
10:55 AM,46.4,24.8,43,30.08,10.0,South,15.0,19.6,N/A,,Clear,170,2013-03-03 16:55:00
11:15 AM,46.4,26.6,46,30.06,10.0,SSE,13.8,20.7,N/A,,Clear,160,2013-03-03 17:15:00
11:35 AM,48.2,26.6,43,30.05,10.0,South,11.5,18.4,N/A,,Clear,170,2013-03-03 17:35:00
11:55 AM,50.0,26.6,40,30.04,10.0,South,11.5,19.6,N/A,,Clear,170,2013-03-03 17:55:00
12:15 PM,50.0,26.6,40,30.02,10.0,SSE,16.1,19.6,N/A,,Clear,160,2013-03-03 18:15:00
12:35 PM,51.8,28.4,41,30.01,10.0,SSE,13.8,18.4,N/A,,Clear,160,2013-03-03 18:35:00
12:55 PM,51.8,28.4,41,29.99,10.0,SSE,15.0,21.9,N/A,,Clear,160,2013-03-03 18:55:00
1:15 PM,53.6,28.4,38,29.98,10.0,South,15.0,21.9,N/A,,Clear,170,2013-03-03 19:15:00
1:35 PM,53.6,30.2,41,29.96,10.0,South,16.1,-,N/A,,Clear,180,2013-03-03 19:35:00
1:55 PM,55.4,30.2,38,29.95,10.0,South,15.0,23.0,N/A,,Clear,180,2013-03-03 19:55:00
2:35 PM,57.2,30.2,36,29.93,10.0,South,11.5,20.7,N/A,,Clear,170,2013-03-03 20:35:00
2:55 PM,59.0,30.2,34,29.92,10.0,SSE,12.7,17.3,N/A,,Clear,160,2013-03-03 20:55:00
3:35 PM,59.0,30.2,34,29.90,10.0,South,10.4,-,N/A,,Clear,190,2013-03-03 21:35:00
4:15 PM,55.4,30.2,38,29.89,10.0,South,11.5,17.3,N/A,,Clear,170,2013-03-03 22:15:00
4:35 PM,55.4,30.2,38,29.87,10.0,SSE,10.4,16.1,N/A,,Clear,160,2013-03-03 22:35:00
4:55 PM,57.2,30.2,36,29.87,10.0,SSE,12.7,17.3,N/A,,Clear,150,2013-03-03 22:55:00
5:15 PM,59.0,30.2,34,29.86,10.0,SSE,13.8,19.6,N/A,,Clear,150,2013-03-03 23:15:00
5:35 PM,55.4,30.2,38,29.85,10.0,SSE,11.5,17.3,N/A,,Clear,150,2013-03-03 23:35:00
5:55 PM,53.6,30.2,41,29.85,10.0,SE,8.1,-,N/A,,Clear,140,2013-03-03 23:55:00
6:15 PM,53.6,30.2,41,29.84,10.0,SSE,10.4,-,N/A,,Clear,150,2013-03-04 00:15:00
6:35 PM,53.6,30.2,41,29.84,10.0,SE,9.2,-,N/A,,Clear,140,2013-03-04 00:35:00
6:55 PM,53.6,30.2,41,29.84,10.0,SSE,10.4,-,N/A,,Clear,150,2013-03-04 00:55:00
7:15 PM,53.6,30.2,41,29.85,10.0,SSE,8.1,-,N/A,,Clear,160,2013-03-04 01:15:00
7:35 PM,53.6,30.2,41,29.86,10.0,SSE,8.1,-,N/A,,Clear,160,2013-03-04 01:35:00
7:55 PM,53.6,30.2,41,29.85,10.0,SSE,6.9,-,N/A,,Clear,150,2013-03-04 01:55:00
8:15 PM,51.8,30.2,44,29.84,10.0,SSE,12.7,-,N/A,,Clear,150,2013-03-04 02:15:00
8:35 PM,51.8,30.2,44,29.82,10.0,SSE,11.5,16.1,N/A,,Clear,150,2013-03-04 02:35:00
8:55 PM,51.8,30.2,44,29.82,10.0,SE,11.5,18.4,N/A,,Clear,140,2013-03-04 02:55:00
9:15 PM,51.8,30.2,44,29.82,10.0,SE,10.4,18.4,N/A,,Clear,140,2013-03-04 03:15:00
9:35 PM,50.0,30.2,47,29.82,10.0,SE,9.2,-,N/A,,Clear,140,2013-03-04 03:35:00
9:55 PM,50.0,30.2,47,29.81,10.0,SE,12.7,16.1,N/A,,Clear,140,2013-03-04 03:55:00
10:15 PM,50.0,30.2,47,29.81,10.0,SE,11.5,17.3,N/A,,Clear,140,2013-03-04 04:15:00
10:35 PM,50.0,30.2,47,29.80,10.0,SE,13.8,17.3,N/A,,Clear,140,2013-03-04 04:35:00
10:55 PM,48.2,30.2,50,29.79,10.0,SE,13.8,-,N/A,,Clear,130,2013-03-04 04:55:00
11:15 PM,48.2,32.0,54,29.77,10.0,SE,16.1,19.6,N/A,,Clear,140,2013-03-04 05:15:00
11:35 PM,48.2,32.0,54,29.76,10.0,SE,12.7,-,N/A,,Clear,140,2013-03-04 05:35:00
11:55 PM,48.2,32.0,54,29.76,10.0,SE,11.5,18.4,N/A,,Clear,140,2013-03-04 05:55:00